Change the Weather History Date:

Monday, October 14, 2013

  Actual Average Record
Temperature  
Mean Temperature 70 °F 62 °F  
Max Temperature 82 °F 74 °F 87 °F (1954)
Min Temperature 58 °F 50 °F 30 °F (1988)
Degree Days  
Heating Degree Days 0 4  
Month to date heating degree days 0 43  
Since 1 July heating degree days 0 58  
Cooling Degree Days 5 2  
Month to date cooling degree days 74 35  
Year to date cooling degree days 1744 1724  
Growing Degree Days 20 (Base 50)    
Moisture  
Dew Point 59 °F    
Average Humidity 71    
Maximum Humidity 93    
Minimum Humidity 49    
Precipitation  
Precipitation 0.00 in 0.10 in 2.51 in (1909)
Month to date precipitation 0.08 1.50  
Year to date precipitation 56.39 40.80  
Snow  
Snow 0.00 in 0.00 in - ()
Month to date snowfall 0.0 0.0  
Since 1 July snowfall 0.0 0.0  
Since 1 September snowfall 0.0 0.0  
Snow Depth 0.00 in    
Sea Level Pressure  
Sea Level Pressure 30.16 in    
Wind  
Wind Speed 2 mph (ENE)    
Max Wind Speed 10 mph    
Max Gust Speed 17 mph    
Visibility 10 miles    
Events Fog    
T = Trace of Precipitation, MM = Missing Value Source: NWS Daily Summary

Daily Weather History Graph

Daily Weather History Graph

Search for Another Location

Airport or City:

Trip Planner

Search our weather history database for the weather conditions in past years. The results will help you decide how hot, cold, wet, or windy it might be!

Date:

Astronomy

Oct. 14, 2013 Rise Set
Actual Time 7:46 AM EDT 7:06 PM EDT
Civil Twilight 7:20 AM EDT 7:32 PM EDT
Nautical Twilight 6:51 AM EDT 8:01 PM EDT
Astronomical Twilight 6:21 AM EDT 8:30 PM EDT
Moon 4:27 PM EDT (10/14) 3:11 AM EDT (10/14)
Length of Visible Light 12h 11m
Length of Day
11h 20m
Waxing Gibbous, 79% of the Moon is Illuminated
Oct 14
Waxing Gibbous
Oct 18
Full
Oct 26
Last Quarter
Nov 3
New
Nov 10
First Quarter

Hourly Weather History & Observations

Time (EDT) Temp. Heat Index Dew Point Humidity Pressure Visibility Wind Dir Wind Speed Gust Speed Precip Events Conditions
12:53 AM 64.0 °F - 57.9 °F 80% 30.19 in 10.0 mi Calm Calm - N/A   Clear
1:53 AM 62.1 °F - 57.0 °F 84% 30.18 in 10.0 mi Calm Calm - N/A   Clear
2:53 AM 61.0 °F - 57.0 °F 87% 30.19 in 10.0 mi Calm Calm - N/A   Clear
3:53 AM 61.0 °F - 57.0 °F 87% 30.18 in 10.0 mi Calm Calm - N/A   Clear
4:53 AM 60.1 °F - 55.9 °F 86% 30.19 in 10.0 mi Calm Calm - N/A   Clear
5:53 AM 59.0 °F - 55.9 °F 90% 30.20 in 10.0 mi Calm Calm - N/A   Scattered Clouds
6:53 AM 57.9 °F - 55.9 °F 93% 30.20 in 7.0 mi Calm Calm - N/A   Scattered Clouds
7:53 AM 57.9 °F - 55.0 °F 90% 30.21 in 7.0 mi Calm Calm - N/A Fog Patches of Fog
8:53 AM 60.1 °F - 55.9 °F 86% 30.23 in 10.0 mi Calm Calm - N/A   Scattered Clouds
9:53 AM 66.9 °F - 59.0 °F 76% 30.23 in 10.0 mi Calm Calm - N/A   Scattered Clouds
10:53 AM 72.0 °F - 60.1 °F 66% 30.22 in 10.0 mi North 4.6 mph - N/A   Scattered Clouds
11:53 AM 75.0 °F - 61.0 °F 62% 30.20 in 10.0 mi Calm Calm - N/A   Scattered Clouds
12:53 PM 77.0 °F - 61.0 °F 58% 30.18 in 10.0 mi NNE 5.8 mph - N/A   Mostly Cloudy
1:53 PM 78.1 °F - 60.1 °F 54% 30.15 in 10.0 mi NE 6.9 mph - N/A   Mostly Cloudy
2:53 PM 80.1 °F 80.9 °F 60.1 °F 50% 30.12 in 10.0 mi Variable 4.6 mph - N/A   Mostly Cloudy
3:53 PM 79.0 °F - 59.0 °F 50% 30.10 in 10.0 mi ENE 4.6 mph - N/A   Mostly Cloudy
4:53 PM 81.0 °F 81.3 °F 59.0 °F 47% 30.09 in 10.0 mi Calm Calm - N/A   Scattered Clouds
5:53 PM 79.0 °F - 59.0 °F 50% 30.10 in 10.0 mi Calm Calm - N/A   Scattered Clouds
6:53 PM 77.0 °F - 59.0 °F 54% 30.11 in 10.0 mi Calm Calm - N/A   Mostly Cloudy
7:53 PM 73.9 °F - 61.0 °F 64% 30.12 in 10.0 mi Calm Calm - N/A   Mostly Cloudy
8:53 PM 73.0 °F - 61.0 °F 66% 30.11 in 10.0 mi Calm Calm - N/A   Mostly Cloudy
9:53 PM 72.0 °F - 61.0 °F 68% 30.12 in 10.0 mi South 5.8 mph - N/A   Mostly Cloudy
10:53 PM 70.0 °F - 60.1 °F 71% 30.13 in 10.0 mi South 4.6 mph - N/A   Scattered Clouds
11:53 PM 69.1 °F - 60.1 °F 73% 30.15 in 10.0 mi SW 3.5 mph - N/A   Mostly Cloudy